Regional Weather Roundup
Issued by NWS Newport/Morehead, NC

Current Version | Previous Version | Graphics & Text | Print | Product List | Glossary Off
Versions: 1 2 3 4 5 6 7 8 9 10 11 12 13 14 15 16 17 18 19 20 21 22 23 24 25 26 27 28 29 30 31 32 33 34 35 36 37 38 39 40 41 42 43 44 45 46 47 48 49 50

000
ASUS42 KMHX 160022
RWRMHX
WEATHER ROUNDUP FOR EASTERN NORTH CAROLINA
NATIONAL WEATHER SERVICE NEWPORT/MOREHEAD CITY NC
800 PM EDT MON SEP 15 2014

NOTE: "FAIR" INDICATES FEW OR NO CLOUDS BELOW 12,000 FEET
WITH NO SIGNIFICANT WEATHER AND/OR OBSTRUCTIONS TO VISIBILITY

NCZ015>017-031-032-045>047-102-103-160100-
NORTH COAST

CITY           SKY/WX    TMP DP  RH WIND       PRES   REMARKS
EDENTON        CLOUDY    70  66  89 CALM      30.14R
ELIZABETH CITY CLOUDY    69  60  73 E5        30.13S
KITTY HAWK     CLOUDY    70  59  66 E5        30.12S
MANTEO         CLOUDY    70  59  68 E5        30.13S

$$

NCZ045>047-081-094-103-104-160100-
CENTRAL COAST

CITY           SKY/WX    TMP DP  RH WIND       PRES   REMARKS
FRISCO         PTCLDY    68  63  84 NE5       30.12R
SWANQUARTER      N/A     72 N/A N/A CALM      30.09S

$$

NCZ095-097-098-100-101-160100-
SOUTHERN COAST

CITY           SKY/WX    TMP DP  RH WIND       PRES   REMARKS
BEAUFORT       MOCLDY    72  66  81 CALM      30.12R
CEDAR ISLAND     N/A     73 N/A N/A E2        30.18R
JACKSONVILLE   CLOUDY    72  68  87 S3        30.12S
NEWPORT        NOT AVBL
PINEY ISLAND   CLOUDY    75  64  68 E3        30.12R
WILMINGTON     MOCLDY    73  68  84 N3        30.12S


$$

NCZ011>013-027>030-043-044-078>080-089-090>093-098-160100-
COASTAL PLAIN

CITY           SKY/WX    TMP DP  RH WIND       PRES   REMARKS
AHOSKIE        CLOUDY    68  65  90 CALM      30.14S
CLINTON        CLOUDY    71  70  94 CALM      30.15R
ELIZABETHTOWN  CLOUDY    73  68  84 CALM      30.14R
GOLDSBORO      CLOUDY    73  70  92 SW2       30.12R
GREENVILLE     CLOUDY    72  68  88 CALM      30.15R
HAVELOCK       CLOUDY    72  66  81 CALM      30.13S
KENANSVILLE    CLOUDY    71  67  89 CALM      30.15R
KINSTON        CLOUDY    72  68  88 CALM      30.14S
NEW BERN       CLOUDY    74  69  85 CALM      30.13S
RICHLANDS      CLOUDY    72  66  83 CALM      30.13S
ROANOKE RAPIDS NOT AVBL
ROCKY MOUNT    CLOUDY    70  66  87 CALM      30.14R
WASHINGTON     CLOUDY    70  67  91 CALM      30.14R
WHITEVILLE     CLOUDY    72  69  92 CALM      30.14R

$$

AMZ130-135-150-152-154-156-158-170-250-252-270-ANZ085-086-088-633-658-670-160100-
MARINE OBSERVATIONS

STATION/POSITION TIME  TEMP    WIND        PRES    WAVE   SWELL
                       AIR SEA DIR/SP/G            HT/PER HT/PER
                 (UTC) (F)     (DEG/KT/KT) (MB)    (FT/S) (FT/S)
CHESAPEAKE LIGHT 0000   69     120/  5/  6 1021.2
BUOY 44014       0000   71 79   30/  8/ 12 1019.9    2/ 7   2/ 7
DUCK             0000   71 76   70/  6/  8 1019.5
2E DUCK          0000                        N/A     2/ 8
OREGON INLET     0000   71 74   40/  7/ 11 1020.0
BUOY 44095       0000      76                N/A     3/ 8
20E OREGON INLET NOT AVBL
HATTERAS CG      0000   72 77   50/  5/  8 1020.4
DIAMOND BUOY     0000   73     360/ 10/ 14 1019.4    3/ 8   3/ 8
CAPE LOOKOUT     0000   75      60/  6/  6 1019.8
BEAUFORT LAB     0000   73 79   50/  2/  3 1019.5
30 SE NEW RIVER  0000   77 82   70/  6/  8 1020.1    2/ 7   2/ 7
5 SE WRIGHTSVILL 0000   73 81  100/  4/  6   N/A
BUOY 41002       NOT AVBL
BUOY 41004       0000   80 83  100/ 10/ 10 1018.7    2/ 5   2/ 5

$$


USA.gov is the U.S. government's official web portal to all federal, state and local government web resources and services.